Hourly Data Report for October 29, 2014

All times are specified in Local Standard Time (LST). Add 1 hour to adjust for Daylight Saving Time where and when it is observed.

TORONTO INTL A
ONTARIO

43°40'36.000" N
79°37'50.000" W
173.40 m
6158731
71624
YYZ

Download Data

Hourly Data (October 2014)
Hourly Data Report for October 29, 2014
Temp Definition
°C
Dew Point Temp Definition
°C
Rel Hum Definition
%
Wind Dir Definition
10's deg

Wind Spd Definition
km/h
Visibility Definition
km
Stn Press Definition
kPa
Hmdx Definition


Wind Chill Definition


Weather Definition


TIME
00:00 Legend Double Dagger 10.1 6.3 77 25 17 24.1 98.95     LegendNANA
01:00 Legend Double Dagger 9.1 5.3 77 25 16 24.1 98.99     Mostly Cloudy
02:00 Legend Double Dagger 8.3 4.5 77 24 13 24.1 98.99     LegendNANA
03:00 Legend Double Dagger 8.8 4.6 75 23 14 24.1 99.00     LegendNANA
04:00 Legend Double Dagger 8.3 3.8 73 24 14 24.1 99.02     Mostly Cloudy
05:00 Legend Double Dagger 7.7 3.4 74 23 12 24.1 99.06     LegendNANA
06:00 Legend Double Dagger 7.8 3.7 75 21 10 24.1 99.05     LegendNANA
07:00 Legend Double Dagger 6.6 3.4 80 24 14 24.1 99.09     Mostly Cloudy
08:00 Legend Double Dagger 7.9 3.6 74 23 12 24.1 99.11     LegendNANA
09:00 Legend Double Dagger 9.6 4.6 71 25 20 24.1 99.10     LegendNANA
10:00 Legend Double Dagger 11.0 4.0 62 25 30 24.1 99.10     Mostly Cloudy
11:00 Legend Double Dagger 12.8 3.8 54 26 34 24.1 99.10     LegendNANA
12:00 Legend Double Dagger 11.0 3.6 60 26 20 24.1 99.08     LegendNANA
13:00 Legend Double Dagger 10.9 3.5 60 27 22 24.1 99.07     Cloudy
14:00 Legend Double Dagger 9.9 4.1 67 26 23 24.1 99.09     LegendNANA
15:00 Legend Double Dagger 9.3 3.9 69 29 31 19.3 99.13     Rain Showers
16:00 Legend Double Dagger 9.3 3.3 66 27 26 24.1 99.16     Mostly Cloudy
17:00 Legend Double Dagger 8.0 3.9 75 29 36 16.1 99.24     Rain Showers
18:00 Legend Double Dagger 7.5 3.4 75 27 22 24.1 99.29     LegendNANA
19:00 Legend Double Dagger 7.0 3.3 77 28 17 24.1 99.37     Mostly Cloudy
20:00 Legend Double Dagger 6.6 3.2 79 28 15 24.1 99.39     LegendNANA
21:00 Legend Double Dagger 6.0 3.0 81 28 14 24.1 99.44     LegendNANA
22:00 Legend Double Dagger 5.4 2.4 81 28 18 24.1 99.46     Mainly Clear
23:00 Legend Double Dagger 5.3 2.1 80 27 14 24.1 99.46     LegendNANA

Notes on Data Quality.

Legend

  • E = Estimated
  • M = Missing
  • NA = Not Available
  • ‡ = Partner data that is not subject to review by the National Climate Archives
Date modified: